Location: Cieszkowy
(50.3290°N, 20.5336°E)
Time: 00:25:30
(UTC+00:00)

Cosmos 1943 - Pass Details

Date: 15 June 2024
Orbit: 834 x 847 km, 71.0° (Epoch: 18 July)

Event Time Altitude Azimuth Distance (km) Brightness Sun altitude
Rises 00:02:20 0° 331° (NNW) 3,396 7.0 -14.0°
Reaches altitude 10° 00:04:48 10° 334° (NNW) 2,457 6.2 -13.9°
Maximum altitude 00:10:26 70° 58° (ENE) 888 3.5 -13.6°
Drops below altitude 10° 00:16:01 10° 142° (SE) 2,441 5.3 -13.2°
Sets 00:18:27 0° 145° (SE) 3,371 6.0 -13.1°
